Weather in Arras

France     50°17′13″N   2°46′36″E
temp.,
°C
wind,
m/s
gust,
m/s
humid.,
%
clouds,
%
prec.,
mm/h
press.,
hPa
HPBL,
m
22 april, thu
thu2223:00+6nne612725 0.0 1022391
02:00+5ne511735 0.0 1023378
05:00+3ne5107427 0.0 1024319
08:00+2ne5127818 0.0 1025407
11:00+8ene795330 0.0 1026709
14:00+12ene67445 0.0 1026993
17:00+13ene674413 0.0 10251177
20:00+10ne486210 0.0 1026287
23 april, fri
fri2323:00+5ne48755 0.0 1028169
02:00+3ne49810 0.0 1028192
05:00+2ene38923 0.0 1028160
08:00+2ene49825 0.0 1029223
11:00+9ene57515 0.0 1029608
14:00+13ene66393 0.0 1028987
17:00+14ene67413 0.0 10271081
20:00+11ene49591 0.0 1026248
24 april, sat
sat2423:00+6ne48720 0.0 1027124
02:00+4ene497851 0.0 1027170
05:00+3ene4108689 0.0 1026195
08:00+4ene41085100 0.0 1026236
11:00+10ene6763100 0.0 1026556
14:00+14ene675099 0.0 10251048
17:00+14ene784652 0.0 10241194
20:00+11ne51062100 0.0 1025444
25 april, sun
sun2523:00+8nne61274100 0.0 1026401
02:00+6ne51181100 0.0 1026340
05:00+4ne5128479 0.0 1026375
08:00+3ne512800 0.0 1027390
11:00+8ne710520 0.0 1026690
14:00+12ne67400 0.0 10251003
17:00+13ne78390 0.0 10231172
20:00+10ne59560 0.0 1022351
26 april, mon
mon2623:00+6nne612762 0.0 1023319
02:00+5ne511800 0.0 1022321
05:00+3ne511850 0.0 1021310
08:00+3ne511830 0.0 1020383
11:00+9ne68584 0.0 1019674
14:00+12ne674257 0.0 10171120
17:00+13ne663976 0.0 10141286
20:00+10nne4857100 0.0 1013259